SES-7 (PROTOSTAR 2)

Last updated on May 23, 2019, 3:05 a.m. UTC

1 34941U 09027A   19142.55697935 -.00000354  00000-0  00000+0 0  9997
2 34941   0.0566 107.4500 0001096 245.5736 195.6385  1.00277332 36725
UTC
Height (km)
Latitude
Longitude
Inclination
Orbital Period
UTC large
Height (km)
Speed (km/s)
/
Latitude / Longitude
Inclination (degrees)
Orbital Period (minutes)
Azimuth
Elevation
Range (km)
Doppler Factor
iOS Compass Heading
iOS Angle

Next 30 passes for location: Hong Kong

Rise time Rise Azimuth (degrees) Set time Set Azimuth (degrees) Duration Max altitude (degrees)

No matching passes for this satellites